Tracking 25710 objects as of 5-Jul-2022
HD Live streaming from Space Station
objects crossing your sky now

STARLINK-1865

Track STARLINK-1865 now!
10-day predictions
STARLINK-1865 is classified as:


NORAD ID: 46741
Int'l Code: 2020-074C
Perigee: 553.4 km
Apogee: 555.3 km
Inclination: 53.1 °
Period: 95.6 minutes
Semi major axis: 6925 km
RCS: Unknown
Launch date: October 24, 2020
Source: United States (US)
Launch site: AIR FORCE EASTERN TEST RANGE (AFETR)
aabbcc
Your satellite tracking list
Your tracking list is empty




NASA's NSSDC Master Catalog

Two Line Element Set (TLE):
1 46741U 20074C   22186.14367143 -.00000626  00000-0 -23158-4 0  9992
2 46741  53.0546 233.0332 0001392  74.2336 285.8806 15.06404083 94183
Source of the keplerian elements: AFSPC